Time,TemperatureF,DewpointF,PressureIn,WindDirection,WindDirectionDegrees,WindSpeedMPH,WindSpeedGustMPH,Humidity,HourlyPrecipIn,Conditions,Clouds,dailyrainin,SolarRadiationWatts/m^2,SoftwareType,DateUTC
2013-02-28 00:13:00,49.3,45.0,30.37,SSE,148,2.0,3.0,84,0.00,,,0.00,0,weatherlink.com 1.10,2013-02-28 08:13:00,
2013-02-28 00:28:00,49.0,44.0,30.37,SSE,148,0.0,1.0,84,0.00,,,0.00,0,weatherlink.com 1.10,2013-02-28 08:28:00,
2013-02-28 00:43:00,48.7,44.0,30.37,SSE,148,0.0,1.0,85,0.00,,,0.00,0,weatherlink.com 1.10,2013-02-28 08:43:00,
2013-02-28 00:58:00,48.7,44.0,30.37,SSE,148,0.0,1.0,85,0.00,,,0.00,0,weatherlink.com 1.10,2013-02-28 08:58:00,
2013-02-28 01:13:00,48.7,44.0,30.38,SSE,148,0.0,1.0,85,0.00,,,0.00,0,weatherlink.com 1.10,2013-02-28 09:13:00,
2013-02-28 01:28:00,49.0,45.0,30.38,SSE,148,0.0,3.0,85,0.00,,,0.00,0,weatherlink.com 1.10,2013-02-28 09:28:00,
2013-02-28 01:43:00,49.0,45.0,30.38,SSE,148,1.0,2.0,85,0.00,,,0.00,0,weatherlink.com 1.10,2013-02-28 09:43:00,
2013-02-28 01:58:00,49.2,45.0,30.38,SSE,147,2.0,4.0,86,0.00,,,0.00,0,weatherlink.com 1.10,2013-02-28 09:58:00,
2013-02-28 02:13:00,49.1,45.0,30.39,SSE,154,1.0,2.0,86,0.00,,,0.00,0,weatherlink.com 1.10,2013-02-28 10:13:00,
2013-02-28 02:28:00,49.1,45.0,30.38,SE,146,0.0,2.0,86,0.00,,,0.00,0,weatherlink.com 1.10,2013-02-28 10:28:00,
2013-02-28 02:43:00,49.4,46.0,30.37,SE,141,1.0,4.0,87,0.00,,,0.00,0,weatherlink.com 1.10,2013-02-28 10:43:00,
2013-02-28 02:58:00,49.9,46.0,30.37,SE,146,2.0,3.0,87,0.00,,,0.00,0,weatherlink.com 1.10,2013-02-28 10:58:00,
2013-02-28 03:13:00,49.8,46.0,30.37,SE,146,1.0,3.0,85,0.00,,,0.00,0,weatherlink.com 1.10,2013-02-28 11:13:00,
2013-02-28 03:28:00,49.5,46.0,30.38,SE,146,1.0,2.0,86,0.00,,,0.00,0,weatherlink.com 1.10,2013-02-28 11:28:00,
2013-02-28 03:43:00,49.1,45.0,30.38,SE,143,1.0,3.0,87,0.00,,,0.00,0,weatherlink.com 1.10,2013-02-28 11:43:00,
2013-02-28 03:58:00,49.1,46.0,30.38,SSE,147,4.0,5.0,88,0.00,,,0.00,0,weatherlink.com 1.10,2013-02-28 11:58:00,
2013-02-28 04:13:00,49.4,46.0,30.38,SE,136,4.0,5.0,89,0.00,,,0.00,0,weatherlink.com 1.10,2013-02-28 12:13:00,
2013-02-28 04:28:00,49.5,46.0,30.37,SE,141,1.0,3.0,89,0.00,,,0.00,0,weatherlink.com 1.10,2013-02-28 12:28:00,
2013-02-28 04:43:00,49.5,46.0,30.37,SE,140,1.0,2.0,88,0.00,,,0.00,0,weatherlink.com 1.10,2013-02-28 12:43:00,
2013-02-28 04:58:00,49.2,46.0,30.38,SSE,148,0.0,4.0,88,0.00,,,0.00,0,weatherlink.com 1.10,2013-02-28 12:58:00,
2013-02-28 05:13:00,49.1,46.0,30.39,SSE,148,0.0,1.0,88,0.00,,,0.00,0,weatherlink.com 1.10,2013-02-28 13:13:00,
2013-02-28 05:28:00,48.6,45.0,30.40,SSE,148,0.0,1.0,88,0.00,,,0.00,0,weatherlink.com 1.10,2013-02-28 13:28:00,
2013-02-28 05:44:00,48.4,45.0,30.40,SSE,148,1.0,2.0,89,0.00,,,0.00,0,weatherlink.com 1.10,2013-02-28 13:44:00,
2013-02-28 05:59:00,48.3,45.0,30.41,SSE,148,0.0,2.0,89,0.00,,,0.00,0,weatherlink.com 1.10,2013-02-28 13:59:00,
2013-02-28 06:14:00,48.4,46.0,30.41,SSE,148,1.0,2.0,90,0.00,,,0.00,0,weatherlink.com 1.10,2013-02-28 14:14:00,
2013-02-28 06:29:00,48.6,46.0,30.41,SSE,148,0.0,2.0,89,0.00,,,0.00,0,weatherlink.com 1.10,2013-02-28 14:29:00,
2013-02-28 06:44:00,49.2,47.0,30.41,SSE,148,2.0,3.0,90,0.00,,,0.00,5,weatherlink.com 1.10,2013-02-28 14:44:00,
2013-02-28 06:59:00,49.5,46.0,30.41,SSE,148,1.0,3.0,89,0.00,,,0.00,16,weatherlink.com 1.10,2013-02-28 14:59:00,
2013-02-28 07:14:00,49.6,47.0,30.42,SSE,148,0.0,0.0,89,0.00,,,0.00,42,weatherlink.com 1.10,2013-02-28 15:14:00,
2013-02-28 07:29:00,50.0,47.0,30.42,SSE,148,1.0,2.0,89,0.00,,,0.00,70,weatherlink.com 1.10,2013-02-28 15:29:00,
2013-02-28 07:44:00,51.8,48.0,30.42,SSE,149,1.0,2.0,87,0.00,,,0.00,204,weatherlink.com 1.10,2013-02-28 15:44:00,
2013-02-28 07:59:00,53.7,49.0,30.43,South,172,2.0,3.0,83,0.00,,,0.00,179,weatherlink.com 1.10,2013-02-28 15:59:00,
2013-02-28 08:14:00,54.1,49.0,30.43,South,170,0.0,2.0,82,0.00,,,0.00,135,weatherlink.com 1.10,2013-02-28 16:14:00,
2013-02-28 08:29:00,53.8,48.0,30.43,South,169,0.0,2.0,82,0.00,,,0.00,84,weatherlink.com 1.10,2013-02-28 16:29:00,
2013-02-28 08:44:00,54.6,49.0,30.44,South,169,0.0,2.0,82,0.00,,,0.00,357,weatherlink.com 1.10,2013-02-28 16:44:00,
2013-02-28 08:59:00,56.6,50.0,30.45,SSE,163,1.0,3.0,78,0.00,,,0.00,397,weatherlink.com 1.10,2013-02-28 16:59:00,
2013-02-28 09:14:00,58.6,51.0,30.45,SSW,211,0.0,3.0,75,0.00,,,0.00,431,weatherlink.com 1.10,2013-02-28 17:14:00,
2013-02-28 09:29:00,59.3,51.0,30.45,SSW,211,2.0,5.0,75,0.00,,,0.00,424,weatherlink.com 1.10,2013-02-28 17:29:00,
2013-02-28 09:44:00,59.0,51.0,30.45,SE,142,2.0,4.0,74,0.00,,,0.00,531,weatherlink.com 1.10,2013-02-28 17:44:00,
2013-02-28 09:59:00,60.0,51.0,30.45,SSW,205,0.0,4.0,72,0.00,,,0.00,564,weatherlink.com 1.10,2013-02-28 17:59:00,
2013-02-28 10:14:00,59.9,51.0,30.45,SSE,157,2.0,4.0,72,0.00,,,0.00,591,weatherlink.com 1.10,2013-02-28 18:14:00,
2013-02-28 10:45:00,61.4,52.0,30.45,SSW,202,0.0,4.0,72,0.00,,,0.00,656,weatherlink.com 1.10,2013-02-28 18:45:00,
2013-02-28 11:00:00,63.0,52.0,30.44,SSW,209,2.0,4.0,68,0.00,,,0.00,693,weatherlink.com 1.10,2013-02-28 19:00:00,
2013-02-28 11:15:00,63.6,51.0,30.43,SSW,200,0.0,4.0,63,0.00,,,0.00,707,weatherlink.com 1.10,2013-02-28 19:15:00,
2013-02-28 11:30:00,64.2,52.0,30.43,SW,217,0.0,4.0,64,0.00,,,0.00,733,weatherlink.com 1.10,2013-02-28 19:30:00,
2013-02-28 11:45:00,65.3,52.0,30.43,SSW,208,0.0,5.0,62,0.00,,,0.00,751,weatherlink.com 1.10,2013-02-28 19:45:00,
2013-02-28 12:00:00,66.3,52.0,30.42,SSW,207,0.0,5.0,60,0.00,,,0.00,752,weatherlink.com 1.10,2013-02-28 20:00:00,
2013-02-28 12:15:00,64.5,52.0,30.43,SSW,196,2.0,6.0,65,0.00,,,0.00,758,weatherlink.com 1.10,2013-02-28 20:15:00,
2013-02-28 12:30:00,60.2,51.0,30.43,SE,138,3.0,8.0,71,0.00,,,0.00,761,weatherlink.com 1.10,2013-02-28 20:30:00,
2013-02-28 12:45:00,59.5,51.0,30.43,South,175,4.0,7.0,73,0.00,,,0.00,772,weatherlink.com 1.10,2013-02-28 20:45:00,
2013-02-28 13:00:00,59.8,51.0,30.43,SSE,168,3.0,6.0,73,0.00,,,0.00,642,weatherlink.com 1.10,2013-02-28 21:00:00,
2013-02-28 13:15:00,60.5,51.0,30.41,South,173,0.0,5.0,71,0.00,,,0.00,714,weatherlink.com 1.10,2013-02-28 21:15:00,
2013-02-28 13:30:00,60.9,51.0,30.40,South,177,4.0,6.0,71,0.00,,,0.00,768,weatherlink.com 1.10,2013-02-28 21:30:00,
2013-02-28 13:45:00,61.8,52.0,30.39,SE,137,5.0,6.0,70,0.00,,,0.00,701,weatherlink.com 1.10,2013-02-28 21:45:00,
2013-02-28 14:00:00,61.0,52.0,30.40,SSE,150,3.0,5.0,72,0.00,,,0.00,691,weatherlink.com 1.10,2013-02-28 22:00:00,
2013-02-28 14:15:00,58.7,51.0,30.40,SE,138,5.0,7.0,75,0.00,,,0.00,664,weatherlink.com 1.10,2013-02-28 22:15:00,
2013-02-28 14:30:00,58.1,51.0,30.40,SE,144,3.0,8.0,77,0.00,,,0.00,633,weatherlink.com 1.10,2013-02-28 22:30:00,
2013-02-28 14:45:00,58.3,51.0,30.40,South,179,2.0,6.0,78,0.00,,,0.00,608,weatherlink.com 1.10,2013-02-28 22:45:00,
2013-02-28 15:00:00,57.2,51.0,30.40,ESE,114,7.0,7.0,79,0.00,,,0.00,504,weatherlink.com 1.10,2013-02-28 23:00:00,
2013-02-28 15:15:00,57.2,51.0,30.40,South,173,3.0,10.0,80,0.00,,,0.00,554,weatherlink.com 1.10,2013-02-28 23:15:00,
2013-02-28 15:30:00,58.1,51.0,30.40,SE,131,7.0,7.0,78,0.00,,,0.00,352,weatherlink.com 1.10,2013-02-28 23:30:00,
2013-02-28 15:45:00,58.3,51.0,30.40,SSE,152,2.0,9.0,78,0.00,,,0.00,450,weatherlink.com 1.10,2013-02-28 23:45:00,
2013-02-28 16:00:00,59.6,52.0,30.39,SE,138,4.0,7.0,75,0.00,,,0.00,302,weatherlink.com 1.10,2013-03-01 00:00:00,
2013-02-28 16:15:00,60.0,52.0,30.39,SSE,149,3.0,6.0,74,0.00,,,0.00,290,weatherlink.com 1.10,2013-03-01 00:15:00,
2013-02-28 16:30:00,60.1,52.0,30.38,SE,145,3.0,4.0,74,0.00,,,0.00,285,weatherlink.com 1.10,2013-03-01 00:30:00,
2013-02-28 16:45:00,60.3,52.0,30.38,SSE,148,2.0,4.0,74,0.00,,,0.00,236,weatherlink.com 1.10,2013-03-01 00:45:00,
2013-02-28 17:00:00,59.4,51.0,30.38,SSE,160,2.0,6.0,75,0.00,,,0.00,165,weatherlink.com 1.10,2013-03-01 01:00:00,
2013-02-28 17:15:00,57.5,51.0,30.39,SE,146,3.0,5.0,78,0.00,,,0.00,58,weatherlink.com 1.10,2013-03-01 01:15:00,
2013-02-28 17:30:00,55.7,50.0,30.39,SSE,148,5.0,5.0,82,0.00,,,0.00,26,weatherlink.com 1.10,2013-03-01 01:30:00,
2013-02-28 17:45:00,54.6,50.0,30.39,SE,146,4.0,6.0,85,0.00,,,0.00,14,weatherlink.com 1.10,2013-03-01 01:45:00,
2013-02-28 18:00:00,54.3,50.0,30.39,SSE,155,2.0,5.0,86,0.00,,,0.00,5,weatherlink.com 1.10,2013-03-01 02:00:00,
2013-02-28 18:15:00,53.8,50.0,30.39,SE,142,1.0,4.0,87,0.00,,,0.00,0,weatherlink.com 1.10,2013-03-01 02:15:00,
2013-02-28 18:30:00,53.6,50.0,30.39,SE,146,2.0,4.0,87,0.00,,,0.00,0,weatherlink.com 1.10,2013-03-01 02:30:00,
2013-02-28 18:45:00,53.4,50.0,30.40,SSE,157,1.0,3.0,88,0.00,,,0.00,0,weatherlink.com 1.10,2013-03-01 02:45:00,
2013-02-28 19:00:00,53.3,50.0,30.40,SSE,166,0.0,3.0,88,0.00,,,0.00,0,weatherlink.com 1.10,2013-03-01 03:00:00,
2013-02-28 19:15:00,53.1,50.0,30.41,SSE,163,2.0,3.0,88,0.00,,,0.00,0,weatherlink.com 1.10,2013-03-01 03:15:00,
2013-02-28 19:30:00,52.9,50.0,30.41,SSE,163,0.0,2.0,88,0.00,,,0.00,0,weatherlink.com 1.10,2013-03-01 03:30:00,
2013-02-28 19:45:00,52.7,50.0,30.41,SSE,163,1.0,2.0,89,0.00,,,0.00,0,weatherlink.com 1.10,2013-03-01 03:45:00,
2013-02-28 20:00:00,52.6,50.0,30.41,SSE,163,1.0,3.0,89,0.00,,,0.00,0,weatherlink.com 1.10,2013-03-01 04:00:00,
2013-02-28 20:15:00,52.4,49.0,30.42,SSE,163,0.0,2.0,89,0.00,,,0.00,0,weatherlink.com 1.10,2013-03-01 04:15:00,
2013-02-28 20:30:00,52.2,49.0,30.42,SSE,163,2.0,2.0,89,0.00,,,0.00,0,weatherlink.com 1.10,2013-03-01 04:30:00,
2013-02-28 20:45:00,52.3,49.0,30.42,SSE,163,0.0,2.0,89,0.00,,,0.00,0,weatherlink.com 1.10,2013-03-01 04:45:00,
2013-02-28 21:00:00,51.9,49.0,30.42,SSE,163,0.0,1.0,89,0.00,,,0.00,0,weatherlink.com 1.10,2013-03-01 05:00:00,
2013-02-28 21:15:00,51.3,48.0,30.42,SSE,163,0.0,1.0,89,0.00,,,0.00,0,weatherlink.com 1.10,2013-03-01 05:15:00,
2013-02-28 21:30:00,51.0,49.0,30.43,SSE,163,0.0,1.0,91,0.00,,,0.00,0,weatherlink.com 1.10,2013-03-01 05:30:00,
2013-02-28 21:45:00,51.3,49.0,30.43,SSE,163,0.0,2.0,92,0.00,,,0.00,0,weatherlink.com 1.10,2013-03-01 05:45:00,
2013-02-28 22:00:00,51.4,49.0,30.43,SSE,163,0.0,3.0,92,0.00,,,0.00,0,weatherlink.com 1.10,2013-03-01 06:00:00,
2013-02-28 22:15:00,51.0,49.0,30.43,SSE,159,2.0,4.0,91,0.00,,,0.00,0,weatherlink.com 1.10,2013-03-01 06:15:00,
2013-02-28 22:30:00,50.9,49.0,30.44,SSE,159,1.0,2.0,92,0.00,,,0.00,0,weatherlink.com 1.10,2013-03-01 06:30:00,
2013-02-28 22:45:00,50.8,49.0,30.43,SSE,159,1.0,2.0,92,0.00,,,0.00,0,weatherlink.com 1.10,2013-03-01 06:45:00,
2013-02-28 23:00:00,50.8,49.0,30.43,SSE,159,1.0,3.0,93,0.00,,,0.00,0,weatherlink.com 1.10,2013-03-01 07:00:00,
2013-02-28 23:15:00,50.8,49.0,30.43,SSE,159,0.0,2.0,93,0.00,,,0.00,0,weatherlink.com 1.10,2013-03-01 07:15:00,
2013-02-28 23:30:00,50.3,48.0,30.43,SSE,159,0.0,0.0,92,0.00,,,0.00,0,weatherlink.com 1.10,2013-03-01 07:30:00,
2013-02-28 23:45:00,50.4,49.0,30.43,SSE,159,1.0,2.0,93,0.00,,,0.00,0,weatherlink.com 1.10,2013-03-01 07:45:00,